• In Russia
  • List of Countries
  • For 7 days
  • Water Temperature
  • Satellite Maps
  • Weather Map
  • Weather Widgets
  • user-avatar
    Login

    Hourly Weather Malaya Rakovka

    Today, 19 June, Tuesday

    Time Temperature Precipitation Wind Pressure Humidity
    00:00 +15°C° 0 mm 2 mps 750 mmHg 87%
    01:00 +15°C° 0 mm 2 mps 750 mmHg 88%
    02:00 +14°C° 0 mm 2 mps 751 mmHg 88%
    03:00 +14°C° 0 mm 2 mps 750 mmHg 88%
    04:00 +15°C° 0 mm 2 mps 750 mmHg 85%
    05:00 +16°C° 0 mm 2 mps 750 mmHg 81%
    06:00 +17°C° 0 mm 2 mps 751 mmHg 78%
    07:00 +19°C° 0 mm 2 mps 751 mmHg 73%
    08:00 +21°C° 0 mm 3 mps 751 mmHg 68%
    09:00 +24°C° 0 mm 3 mps 750 mmHg 64%
    10:00 +25°C° 0 mm 3 mps 750 mmHg 59%
    11:00 +26°C° 0 mm 3 mps 750 mmHg 55%
    12:00 +27°C° 0 mm 4 mps 750 mmHg 51%
    13:00 +27°C° 0 mm 4 mps 750 mmHg 53%
    14:00 +27°C° 0 mm 3 mps 750 mmHg 56%
    15:00 +27°C° 0 mm 3 mps 750 mmHg 58%
    16:00 +26°C° 0 mm 3 mps 750 mmHg 61%
    17:00 +26°C° 0 mm 3 mps 750 mmHg 65%
    18:00 +25°C° 0 mm 3 mps 750 mmHg 68%
    19:00 +23°C° 0 mm 2 mps 750 mmHg 70%
    20:00 +21°C° 0 mm 2 mps 750 mmHg 73%
    21:00 +19°C° 0 mm 2 mps 750 mmHg 75%
    22:00 +18°C° 0 mm 2 mps 750 mmHg 75%
    23:00 +18°C° 0 mm 2 mps 750 mmHg 74%

    Tomorrow, 20 June, Wednesday

    Time Temperature Precipitation Wind Pressure Humidity
    00:00 +18°C° 0 mm 2 mps 750 mmHg 73%
    01:00 +17°C° 0 mm 2 mps 750 mmHg 74%
    02:00 +17°C° 0 mm 2 mps 750 mmHg 75%
    03:00 +17°C° 0 mm 2 mps 749 mmHg 76%
    04:00 +18°C° 0 mm 3 mps 749 mmHg 76%
    05:00 +19°C° 0 mm 3 mps 749 mmHg 77%
    06:00 +20°C° 0 mm 3 mps 749 mmHg 77%
    07:00 +22°C° 0.1 mm 4 mps 749 mmHg 73%
    08:00 +23°C° 0.1 mm 5 mps 748 mmHg 70%
    09:00 +24°C° 0.1 mm 6 mps 748 mmHg 66%
    10:00 +26°C° 0.2 mm 7 mps 747 mmHg 65%
    11:00 +26°C° 0.2 mm 7 mps 747 mmHg 63%
    12:00 +27°C° 0.2 mm 8 mps 746 mmHg 62%
    13:00 +26°C° 0.7 mm 8 mps 746 mmHg 66%
    14:00 +26°C° 0.7 mm 8 mps 746 mmHg 71%
    15:00 +24°C° 0.7 mm 8 mps 745 mmHg 75%
    16:00 +23°C° 0.7 mm 7 mps 746 mmHg 77%
    17:00 +22°C° 0.7 mm 6 mps 746 mmHg 79%
    18:00 +21°C° 0.7 mm 5 mps 746 mmHg 81%
    19:00 +19°C° 0 mm 5 mps 746 mmHg 80%
    20:00 +17°C° 0 mm 4 mps 747 mmHg 79%
    21:00 +15°C° 0 mm 4 mps 747 mmHg 79%
    22:00 +14°C° 0 mm 4 mps 748 mmHg 79%
    23:00 +13°C° 0 mm 4 mps 748 mmHg 79%

    Day after tomorrow, 21 June, Thursday

    Time Temperature Precipitation Wind Pressure Humidity
    00:00 +13°C° 0 mm 4 mps 748 mmHg 79%
    01:00 +12°C° 0 mm 3 mps 748 mmHg 80%
    02:00 +12°C° 0 mm 3 mps 748 mmHg 80%
    03:00 +11°C° 0 mm 3 mps 748 mmHg 80%
    04:00 +13°C° 0 mm 4 mps 749 mmHg 78%
    05:00 +14°C° 0 mm 4 mps 749 mmHg 76%
    06:00 +15°C° 0 mm 5 mps 749 mmHg 74%
    07:00 +16°C° 0 mm 6 mps 748 mmHg 69%
    08:00 +17°C° 0 mm 6 mps 748 mmHg 63%
    09:00 +20°C° 0 mm 7 mps 748 mmHg 57%
    10:00 +20°C° 0 mm 7 mps 748 mmHg 55%
    11:00 +20°C° 0 mm 8 mps 748 mmHg 54%
    12:00 +21°C° 0 mm 8 mps 748 mmHg 53%
    13:00 +21°C° 0 mm 8 mps 748 mmHg 54%
    14:00 +21°C° 0 mm 8 mps 748 mmHg 54%
    15:00 +21°C° 0 mm 8 mps 748 mmHg 55%
    16:00 +21°C° 0 mm 7 mps 749 mmHg 60%
    17:00 +20°C° 0 mm 5 mps 749 mmHg 65%
    18:00 +20°C° 0 mm 4 mps 749 mmHg 70%
    19:00 +18°C° 0 mm 4 mps 749 mmHg 72%
    20:00 +17°C° 0 mm 4 mps 749 mmHg 75%
    21:00 +14°C° 0 mm 4 mps 750 mmHg 77%
    22:00 +14°C° 0 mm 4 mps 750 mmHg 79%
    23:00 +13°C° 0 mm 4 mps 750 mmHg 80%

    22 June, Friday

    Time Temperature Precipitation Wind Pressure Humidity
    00:00 +13°C° 0 mm 4 mps 750 mmHg 82%
    01:00 +12°C° 0 mm 4 mps 751 mmHg 85%
    02:00 +12°C° 0 mm 3 mps 751 mmHg 87%
    03:00 +11°C° 0 mm 3 mps 751 mmHg 90%
    04:00 +12°C° 0 mm 3 mps 751 mmHg 86%
    05:00 +14°C° 0 mm 4 mps 752 mmHg 83%
    06:00 +15°C° 0 mm 4 mps 752 mmHg 79%
    07:00 +17°C° 0 mm 4 mps 752 mmHg 73%
    08:00 +19°C° 0 mm 4 mps 752 mmHg 67%
    09:00 +21°C° 0 mm 4 mps 752 mmHg 61%
    10:00 +22°C° 0 mm 4 mps 752 mmHg 59%
    11:00 +23°C° 0 mm 4 mps 752 mmHg 57%
    12:00 +23°C° 0 mm 4 mps 752 mmHg 55%
    13:00 +25°C° 0 mm 4 mps 752 mmHg 57%
    14:00 +25°C° 0 mm 4 mps 752 mmHg 58%
    15:00 +25°C° 0 mm 4 mps 752 mmHg 59%
    16:00 +25°C° 0 mm 3 mps 752 mmHg 64%
    17:00 +25°C° 0 mm 3 mps 752 mmHg 68%
    18:00 +25°C° 0 mm 2 mps 752 mmHg 73%
    19:00 +23°C° 0 mm 2 mps 752 mmHg 77%
    20:00 +21°C° 0 mm 1 mps 753 mmHg 81%
    21:00 +19°C° 0 mm 1 mps 753 mmHg 86%
    22:00 +19°C° 0 mm 1 mps 753 mmHg 86%
    23:00 +19°C° 0 mm 1 mps 753 mmHg 87%

    23 June, Saturday

    Time Temperature Precipitation Wind Pressure Humidity
    00:00 +18°C° 0 mm 1 mps 753 mmHg 87%
    01:00 +18°C° 0 mm 1 mps 753 mmHg 88%
    02:00 +18°C° 0 mm 1 mps 753 mmHg 89%
    03:00 +18°C° 0 mm 1 mps 753 mmHg 89%
    04:00 +19°C° 0 mm 1 mps 753 mmHg 87%
    05:00 +20°C° 0 mm 1 mps 753 mmHg 84%
    06:00 +22°C° 0 mm 1 mps 754 mmHg 81%
    07:00 +23°C° 0 mm 2 mps 754 mmHg 77%
    08:00 +25°C° 0 mm 2 mps 754 mmHg 72%
    09:00 +26°C° 0 mm 2 mps 754 mmHg 67%
    10:00 +27°C° 0 mm 2 mps 754 mmHg 63%
    11:00 +28°C° 0 mm 2 mps 754 mmHg 60%
    12:00 +29°C° 0 mm 3 mps 753 mmHg 56%
    13:00 +29°C° 0 mm 3 mps 753 mmHg 55%
    14:00 +29°C° 0 mm 2 mps 753 mmHg 55%
    15:00 +29°C° 0 mm 2 mps 753 mmHg 54%
    16:00 +29°C° 0 mm 2 mps 753 mmHg 58%
    17:00 +29°C° 0 mm 2 mps 752 mmHg 61%
    18:00 +28°C° 0 mm 1 mps 752 mmHg 65%
    19:00 +26°C° 0 mm 1 mps 752 mmHg 70%
    20:00 +24°C° 0 mm 1 mps 753 mmHg 74%
    21:00 +20°C° 0 mm 0 mps 753 mmHg 79%
    22:00 +20°C° 0 mm 0 mps 753 mmHg 80%
    23:00 +21°C° 0 mm 1 mps 753 mmHg 81%

    24 June, Sunday

    Time Temperature Precipitation Wind Pressure Humidity
    00:00 +21°C° 0 mm 1 mps 753 mmHg 82%
    01:00 +21°C° 0 mm 1 mps 753 mmHg 83%
    02:00 +20°C° 0 mm 1 mps 753 mmHg 84%
    03:00 +19°C° 0 mm 2 mps 753 mmHg 85%
    04:00 +20°C° 0 mm 2 mps 753 mmHg 82%
    05:00 +21°C° 0 mm 2 mps 753 mmHg 80%
    06:00 +23°C° 0 mm 2 mps 753 mmHg 77%
    07:00 +25°C° 0 mm 3 mps 754 mmHg 71%
    08:00 +26°C° 0 mm 3 mps 754 mmHg 66%
    09:00 +28°C° 0 mm 4 mps 754 mmHg 60%
    10:00 +29°C° 0 mm 4 mps 753 mmHg 57%
    11:00 +29°C° 0 mm 4 mps 753 mmHg 55%
    12:00 +30°C° 0 mm 5 mps 753 mmHg 52%
    13:00 +30°C° 0 mm 4 mps 753 mmHg 52%
    14:00 +30°C° 0 mm 4 mps 753 mmHg 51%
    15:00 +30°C° 0 mm 4 mps 753 mmHg 51%
    16:00 +30°C° 0 mm 4 mps 753 mmHg 55%
    17:00 +29°C° 0 mm 3 mps 753 mmHg 59%
    18:00 +28°C° 0 mm 2 mps 753 mmHg 64%
    19:00 +26°C° 0 mm 2 mps 753 mmHg 65%
    20:00 +25°C° 0 mm 2 mps 753 mmHg 66%
    21:00 +23°C° 0 mm 2 mps 753 mmHg 67%
    22:00 +23°C° 0 mm 2 mps 753 mmHg 68%
    23:00 +22°C° 0 mm 1 mps 753 mmHg 69%
    Show more